Hurlburt Field, FL

2:05 PM CST on November 18, 2017 (GMT -0600)
Hurlburt

Weather History for KHRT - April, 2014

Change the Weather History Date:

Wednesday, April 30, 2014

  Actual Average Record
Temperature  
Mean Temperature 67 °F -  
Max Temperature 71 °F 76 °F 85 °F (2012)
Min Temperature 64 °F 60 °F 46 °F (2008)
Cooling Degree Days 2    
Growing Degree Days 17 (Base 50)    
Moisture  
Dew Point 62 °F    
Average Humidity 86    
Maximum Humidity 88    
Minimum Humidity 75    
Precipitation  
Precipitation 5.84 in - - ()
Sea Level Pressure  
Sea Level Pressure 29.87 in    
Wind  
Wind Speed 13 mph (ESE)    
Max Wind Speed 26 mph    
Max Gust Speed 31 mph    
Visibility 5 miles    
Events Fog , Rain , Thunderstorm    
Averages and records for this station are not official NWS values.
T = Trace of Precipitation, MM = Missing Value Source: NWS Daily Summary

Daily Weather History Graph

Daily Weather History Graph

Search for Another Location

Airport or City:

Trip Planner

Search our weather history database for the weather conditions in past years. The results will help you decide how hot, cold, wet, or windy it might be!

Date:

Astronomy

Apr. 30, 2014 Rise Set
Actual Time 6:04 AM CDT 7:24 PM CDT
Civil Twilight 5:38 AM CDT 7:49 PM CDT
Nautical Twilight 5:08 AM CDT 8:20 PM CDT
Astronomical Twilight 4:37 AM CDT 8:51 PM CDT
Moon 7:07 AM CDT (4/30) 8:59 PM CDT (4/30)
Length of Visible Light 14h 10m
Length of Day
13h 20m
New Moon, 2% of the Moon is Illuminated
Apr 30
New Moon
May 6
First Quarter
May 14
Full
May 21
Last Quarter
May 28
New

Hourly Weather History & Observations

Time (CDT) Temp. Dew Point Humidity Pressure Visibility Wind Dir Wind Speed Gust Speed Precip Events Conditions
12:58 AM 64.4 °F 60.8 °F 88% 29.80 in 2.5 mi ESE 12.7 mph - N/A Rain , Thunderstorm Heavy Thunderstorms and Rain
1:14 AM 64.4 °F 60.8 °F 88% 29.79 in 3.0 mi East 10.4 mph - N/A Rain , Thunderstorm Heavy Thunderstorms and Rain
1:24 AM 64.4 °F 60.8 °F 88% 29.80 in 6.0 mi East 12.7 mph - N/A Rain , Thunderstorm Light Thunderstorms and Rain
1:25 AM 64.4 °F 60.8 °F 88% 29.79 in 6.0 mi East 13.8 mph - N/A Rain , Thunderstorm Light Rain
1:30 AM 64.4 °F 60.8 °F 88% 29.79 in 10.0 mi ENE 10.4 mph - N/A Rain , Thunderstorm Light Rain
1:38 AM 64.4 °F 60.8 °F 88% 29.78 in 10.0 mi ENE 11.5 mph 18.4 mph N/A Rain , Thunderstorm Light Thunderstorms and Rain
1:43 AM 64.4 °F 60.8 °F 88% 29.81 in 8.0 mi SSE 10.4 mph 18.4 mph N/A Rain , Thunderstorm Light Thunderstorms and Rain
1:53 AM 66.2 °F 62.6 °F 88% 29.80 in 2.5 mi NNW 12.7 mph - N/A Rain , Thunderstorm Heavy Thunderstorms and Rain
1:56 AM 66.2 °F 62.6 °F 88% 29.79 in 2.0 mi North 15.0 mph - N/A Rain , Thunderstorm Heavy Thunderstorms and Rain
1:58 AM 66.2 °F 62.6 °F 88% 29.80 in 1.8 mi North 12.7 mph - 0.51 in Rain , Thunderstorm Heavy Thunderstorms and Rain
2:03 AM 66.2 °F 62.6 °F 88% 29.82 in 1.5 mi WNW 8.1 mph - N/A Rain , Thunderstorm Heavy Thunderstorms and Rain
2:13 AM 66.2 °F 62.6 °F 88% 29.84 in 0.8 mi SE 8.1 mph - N/A Rain , Thunderstorm Heavy Thunderstorms and Rain
2:18 AM 66.2 °F 62.6 °F 88% 29.83 in 0.5 mi ESE 11.5 mph - N/A Fog , Rain , Thunderstorm Heavy Thunderstorms and Rain
2:23 AM 66.2 °F 62.6 °F 88% 29.82 in 1.0 mi East 12.7 mph - N/A Rain , Thunderstorm Heavy Thunderstorms and Rain
2:28 AM 66.2 °F 62.6 °F 88% 29.84 in 1.2 mi ESE 9.2 mph - N/A Rain , Thunderstorm Heavy Thunderstorms and Rain
2:58 AM 68.0 °F 62.6 °F 83% 29.85 in 1.8 mi East 16.1 mph 20.7 mph 1.96 in Rain , Thunderstorm Heavy Thunderstorms and Rain
3:08 AM 68.0 °F 62.6 °F 83% 29.83 in 2.0 mi ESE 11.5 mph 19.6 mph N/A Rain , Thunderstorm Heavy Thunderstorms and Rain
3:28 AM 66.2 °F 62.6 °F 88% 29.83 in 1.8 mi East 16.1 mph - N/A Rain , Thunderstorm Heavy Thunderstorms and Rain
3:33 AM 68.0 °F 62.6 °F 83% 29.81 in 1.5 mi ESE 15.0 mph - N/A Rain , Thunderstorm Heavy Thunderstorms and Rain
3:54 AM 66.2 °F 62.6 °F 88% 29.79 in 1.0 mi ENE 12.7 mph 21.9 mph N/A Rain , Thunderstorm Heavy Thunderstorms and Rain
3:58 AM 66.2 °F 62.6 °F 88% 29.83 in 1.5 mi East 10.4 mph 21.9 mph 1.31 in Rain , Thunderstorm Heavy Thunderstorms and Rain
4:01 AM 66.2 °F 62.6 °F 88% 29.86 in 1.8 mi SE 13.8 mph 19.6 mph N/A Rain , Thunderstorm Heavy Thunderstorms and Rain
4:06 AM 66.2 °F 62.6 °F 88% 29.86 in 1.5 mi SE 18.4 mph 24.2 mph N/A Rain , Thunderstorm Heavy Thunderstorms and Rain
4:31 AM 66.2 °F 62.6 °F 88% 29.85 in 1.8 mi NE 9.2 mph 19.6 mph N/A Rain , Thunderstorm Heavy Thunderstorms and Rain
4:56 AM 66.2 °F 62.6 °F 88% 29.90 in 1.0 mi Variable 4.6 mph - N/A Rain , Thunderstorm Heavy Thunderstorms and Rain
5:03 AM 66.2 °F 62.6 °F 88% 29.93 in 0.8 mi SSW 6.9 mph - N/A Rain , Thunderstorm Heavy Thunderstorms and Rain
5:11 AM 66.2 °F 62.6 °F 88% 29.94 in 0.8 mi SSW 15.0 mph - N/A Rain , Thunderstorm Heavy Thunderstorms and Rain
5:14 AM 66.2 °F 62.6 °F 88% 29.89 in 1.0 mi SSE 13.8 mph - N/A Rain , Thunderstorm Heavy Thunderstorms and Rain
5:19 AM 66.2 °F 62.6 °F 88% 29.88 in 1.8 mi SE 18.4 mph 23.0 mph N/A Rain , Thunderstorm Heavy Thunderstorms and Rain
5:24 AM 66.2 °F 62.6 °F 88% 29.88 in 2.5 mi SE 18.4 mph 24.2 mph N/A Rain , Thunderstorm Heavy Thunderstorms and Rain
5:58 AM 65.8 °F 61.7 °F 86% 29.87 in 4.0 mi SE 17.3 mph - 1.25 in Rain , Thunderstorm Heavy Thunderstorms and Rain
6:13 AM 66.2 °F 60.8 °F 83% 29.88 in 4.0 mi Variable 2.3 mph - N/A Rain , Thunderstorm Thunderstorms and Rain
6:33 AM 66.2 °F 60.8 °F 83% 29.88 in 2.5 mi East 10.4 mph - N/A Rain , Thunderstorm Heavy Thunderstorms and Rain
6:38 AM 66.2 °F 60.8 °F 83% 29.83 in 2.0 mi ESE 6.9 mph - N/A Rain , Thunderstorm Heavy Thunderstorms and Rain
6:43 AM 64.4 °F 60.8 °F 88% 29.85 in 3.0 mi East 8.1 mph - N/A Rain , Thunderstorm Light Thunderstorms and Rain
6:53 AM 66.2 °F 60.8 °F 83% 29.84 in 4.0 mi ENE 16.1 mph 21.9 mph N/A Rain , Thunderstorm Heavy Thunderstorms and Rain
6:58 AM 66.2 °F 60.8 °F 83% 29.85 in 2.5 mi North 9.2 mph 21.9 mph 0.54 in Rain , Thunderstorm Heavy Thunderstorms and Rain
7:03 AM 66.2 °F 60.8 °F 83% 29.83 in 3.0 mi ENE 12.7 mph 21.9 mph N/A Rain , Thunderstorm Thunderstorms and Rain
7:06 AM 66.2 °F 60.8 °F 83% 29.79 in 4.0 mi East 16.1 mph - N/A Rain , Thunderstorm Light Thunderstorms and Rain
7:47 AM 66.2 °F 62.6 °F 88% 29.87 in 4.0 mi SE 16.1 mph - N/A Rain , Thunderstorm Light Thunderstorms and Rain
7:58 AM 66.6 °F 61.9 °F 85% 29.93 in 5.0 mi South 15.0 mph - 0.18 in Rain , Thunderstorm Light Thunderstorms and Rain
8:08 AM 66.2 °F 62.6 °F 88% 29.89 in 4.0 mi SSE 19.6 mph - N/A Rain , Thunderstorm Heavy Thunderstorms and Rain
8:13 AM 66.2 °F 62.6 °F 88% 29.91 in 2.0 mi SSE 26.5 mph 31.1 mph N/A Rain , Thunderstorm Light Thunderstorms and Rain
8:19 AM 66.2 °F 62.6 °F 88% 29.91 in 4.0 mi SSE 13.8 mph 31.1 mph N/A Rain , Thunderstorm Light Rain
8:24 AM 66.2 °F 60.8 °F 83% 29.92 in 7.0 mi SE 15.0 mph - N/A Rain , Thunderstorm Light Thunderstorms and Rain
8:39 AM 66.2 °F 60.8 °F 83% 29.91 in 10.0 mi SE 18.4 mph 24.2 mph N/A Rain , Thunderstorm Light Rain
8:44 AM 66.2 °F 60.8 °F 83% 29.91 in 10.0 mi SE 15.0 mph 24.2 mph N/A Rain Light Rain
8:58 AM 66.2 °F 62.6 °F 88% 29.93 in 10.0 mi SE 16.1 mph 23.0 mph 0.08 in Rain , Thunderstorm Light Thunderstorms and Rain
9:12 AM 66.2 °F 62.6 °F 88% 29.92 in 10.0 mi SE 15.0 mph 25.3 mph N/A Rain Light Rain
9:16 AM 66.2 °F 62.6 °F 88% 29.92 in 10.0 mi SE 17.3 mph 23.0 mph N/A   Mostly Cloudy
11:28 AM 66.2 °F 60.8 °F 83% 29.96 in 10.0 mi ESE 15.0 mph 24.2 mph N/A Rain Light Rain
12:39 PM 68.0 °F 62.6 °F 83% 29.96 in 10.0 mi SSE 21.9 mph 28.8 mph N/A   Light Drizzle
1:19 PM 68.0 °F 62.6 °F 83% 29.97 in 10.0 mi SE 19.6 mph 28.8 mph N/A Rain Light Rain
2:22 PM 68.0 °F 64.4 °F 88% 29.97 in 10.0 mi SSE 18.4 mph 27.6 mph N/A   Overcast
2:52 PM 69.8 °F 64.4 °F 83% 29.96 in 10.0 mi SSE 18.4 mph - N/A   Mostly Cloudy
2:58 PM 69.4 °F 63.9 °F 82% 29.97 in 10.0 mi SSE 17.3 mph - 0.00 in   Scattered Clouds
3:58 PM 70.9 °F 63.3 °F 77% 29.94 in 10.0 mi SSE 13.8 mph - 0.01 in   Overcast
4:51 PM 69.8 °F 62.6 °F 78% 29.93 in 9.0 mi SSE 11.5 mph - N/A Rain , Thunderstorm Light Rain
4:58 PM 69.8 °F 63.7 °F 81% 29.95 in 9.0 mi South 13.8 mph - 0.00 in Rain , Thunderstorm Light Rain
11:58 PM 68.4 °F 60.3 °F 75% 30.01 in 10.0 mi Variable 1.2 mph - 0.00 in Rain Light Rain